This is the latest recevied weather packets stored in our database for station/object KF0WJA. If no packets are shown the sender has not sent any weather packets the latest 10 day(s).
| Time | Temp. | Humidity | Pressure | Rain* | Wind** | Luminosity | Snow |
|---|---|---|---|---|---|---|---|
| 1788464399 | 36.11° C | 42% | 1014.1 hPa | 0 mm | - | 625 W/m² | - |
| 1788464095 | 36.11° C | 41% | 1013.9 hPa | 0 mm | - | 627 W/m² | - |
| 1788463789 | 36.11° C | 40% | 1014.2 hPa | 0 mm | - | 644 W/m² | - |
| 1788463487 | 36.67° C | 40% | 1014.3 hPa | 0 mm | - | 668 W/m² | - |
| 1788463187 | 36.67° C | 41% | 1014.3 hPa | 0 mm | - | 670 W/m² | - |
| 1788462883 | 36.67° C | 41% | 1014.2 hPa | 0 mm | - | 674 W/m² | - |
| 1788462583 | 36.11° C | 41% | 1014.5 hPa | 0 mm | - | 671 W/m² | - |
| 1788462277 | 35.56° C | 43% | 1014.3 hPa | 0 mm | - | 660 W/m² | - |
| 1788461977 | 36.11° C | 42% | 1014.6 hPa | 0 mm | - | 658 W/m² | - |
| 1788461673 | 35.56° C | 43% | 1014.7 hPa | 0 mm | - | 667 W/m² | - |
| 1788461367 | 35.56° C | 43% | 1014.6 hPa | 0 mm | - | 684 W/m² | - |
| 1788461064 | 35° C | 45% | 1014.7 hPa | 0 mm | - | 664 W/m² | - |
| 1788460764 | 35.56° C | 43% | 1014.8 hPa | 0 mm | - | 665 W/m² | - |
| 1788460459 | 35° C | 45% | 1014.9 hPa | 0 mm | - | 665 W/m² | - |
| 1788460158 | 35° C | 46% | 1014.9 hPa | 0 mm | - | 667 W/m² | - |
| 1788459857 | 35° C | 46% | 1015.1 hPa | 0 mm | - | 658 W/m² | - |
| 1788459552 | 35° C | 46% | 1015.1 hPa | 0 mm | - | 636 W/m² | - |
| 1788459247 | 35.56° C | 45% | 1015.2 hPa | 0 mm | - | 639 W/m² | - |
| 1788458946 | 35° C | 46% | 1015.1 hPa | 0 mm | - | 655 W/m² | - |
| 1788458641 | 35° C | 46% | 1015.3 hPa | 0 mm | - | 639 W/m² | - |
| 1788458341 | 34.44° C | 46% | 1015.4 hPa | 0 mm | - | 624 W/m² | - |
| 1788458035 | 34.44° C | 46% | 1015.5 hPa | 0 mm | - | 634 W/m² | - |
| 1788457730 | 35° C | 45% | 1015.3 hPa | 0 mm | - | 668 W/m² | - |
| 1788457425 | 33.89° C | 49% | 1015.7 hPa | 0 mm | - | 667 W/m² | - |
| 1788457124 | 33.89° C | 49% | 1015.5 hPa | 0 mm | - | 675 W/m² | - |
* Rain latest hour (hover to see other rain measurements)
** Current wind speed in m/s (hover to see current wind gust speed)